Weather History for Yeovilton, United Kingdom

Change the Weather History Date:

Saturday, October 12, 2013

  Actual Average Record
Temperature  
Mean Temperature 52 °F -  
Max Temperature 57 °F 54 °F 71 °F (2008)
Min Temperature 48 °F 42 °F 33 °F (1999)
Degree Days  
Heating Degree Days 12    
Growing Degree Days 2 (Base 50)    
Moisture  
Dew Point 46 °F    
Average Humidity 75    
Maximum Humidity 94    
Minimum Humidity 48    
Precipitation  
Precipitation 0.02 in - - ()
Sea Level Pressure  
Sea Level Pressure 30.08 in    
Wind  
Wind Speed 11 mph ()    
Max Wind Speed 18 mph    
Max Gust Speed -    
Visibility 6.4 miles    
Events Rain    
Averages and records for this station are not official NWS values.
T = Trace of Precipitation, MM = Missing Value Source: Averaged Metar Reports

Daily Weather History Graph

Daily Weather History Graph

Search for Another Location

Airport:

Trip Planner

Search our weather history database for the weather conditions in past years. The results will help you decide how hot, cold, wet, or windy it might be!

Date:

Astronomy

Oct. 12, 2013 Rise Set
Actual Time 7:28 AM BST 6:24 PM BST
Civil Twilight 6:55 AM BST 6:57 PM BST
Nautical Twilight 6:17 AM BST 7:35 PM BST
Astronomical Twilight 5:39 AM BST 8:13 PM BST
Moon 3:01 PM BST (10/12) No Moon Set
Length of Visible Light 12h 01m
Length of Day
10h 55m
First Quarter, 56% of the Moon is Illuminated
Oct 12
First Quarter
Oct 19
Full
Oct 27
Last Quarter
Nov 3
New
Nov 10
First Quarter

Hourly Weather History & Observations

Time (BST) Temp. Dew Point Humidity Pressure Visibility Wind Dir Wind Speed Gust Speed Precip Events Conditions
12:50 AM 53 °F 47 °F 73% 30.12 in 31 mi North 16.1 mph - -   Mostly Cloudy
12:50 AM 53.6 °F 46.4 °F 77% 30.09 in 6.2 mi North 16.1 mph - N/A   Mostly Cloudy
1:50 AM 53.6 °F 46.4 °F 77% 30.09 in 6.2 mi North 16.1 mph - N/A   Mostly Cloudy
2:50 AM 51.8 °F 46.4 °F 82% 30.09 in 6.2 mi North 17.3 mph - N/A   Overcast
3:50 AM 53 °F 47 °F 72% 30.08 in 31 mi North 16.1 mph - -   Overcast
3:50 AM 51.8 °F 46.4 °F 82% 30.06 in 6.2 mi North 16.1 mph - N/A   Overcast
4:50 AM 53.6 °F 46.4 °F 77% 30.06 in 6.2 mi North 16.1 mph - N/A   Overcast
5:50 AM 53.6 °F 48.2 °F 82% 30.04 in 6.2 mi North 18.4 mph - N/A   Overcast
6:50 AM 53 °F 48 °F 79% 30.05 in 25 mi North 13.8 mph - -  
6:50 AM 53.6 °F 48.2 °F 82% 30.04 in 6.2 mi North 13.8 mph - N/A   Overcast
7:50 AM 53.6 °F 48.2 °F 82% 30.04 in 6.2 mi North 11.5 mph - N/A   Overcast
8:50 AM 55.4 °F 50.0 °F 82% 30.06 in 6.2 mi NNE 18.4 mph - N/A   Scattered Clouds
9:50 AM 54 °F 52 °F 90% 30.08 in 3 mi East 6.9 mph - - Rain Light Drizzle
9:50 AM 53.6 °F 51.8 °F 94% 30.06 in 3.1 mi East 6.9 mph - N/A   Light Drizzle
10:50 AM 55.4 °F 48.2 °F 77% 30.09 in 6.2 mi East 15.0 mph - N/A   Scattered Clouds
11:50 AM 55.4 °F 48.2 °F 77% 30.09 in 6.2 mi East 12.7 mph - N/A   Scattered Clouds
12:50 PM 55 °F 44 °F 57% 30.12 in 19 mi ENE 12.7 mph - -   Partly Cloudy
12:50 PM 55.4 °F 44.6 °F 67% 30.09 in 6.2 mi ENE 12.7 mph - N/A   Scattered Clouds
1:50 PM 55.4 °F 42.8 °F 63% 30.09 in 3.7 mi East 11.5 mph - N/A   Haze
2:50 PM 57.2 °F 42.8 °F 59% 30.09 in - East 9.2 mph - N/A   Haze
3:50 PM 56 °F 42 °F 48% 30.12 in 28 mi ENE 9.2 mph - -  
3:50 PM 57.2 °F 42.8 °F 59% 30.09 in 6.2 mi ENE 9.2 mph - N/A   Unknown
4:50 PM 55.4 °F 39.2 °F 54% 30.09 in 6.2 mi East 5.8 mph - N/A   Unknown
5:50 PM 53.6 °F 42.8 °F 67% 30.09 in 6.2 mi NE 3.5 mph - N/A   Unknown
6:50 PM 49 °F 42 °F 70% 30.10 in 31 mi SW 4.6 mph - -   Mostly Cloudy
6:50 PM 50.0 °F 42.8 °F 76% 30.09 in 6.2 mi SW 4.6 mph - N/A   Mostly Cloudy
7:50 PM 48.2 °F 42.8 °F 82% 30.09 in 4.3 mi WSW 3.5 mph - N/A   Haze
8:50 PM 48.2 °F 44.6 °F 87% 30.09 in 6.2 mi WSW 2.3 mph - N/A   Overcast
9:50 PM 48 °F 44 °F 81% 30.09 in 11 mi West 3.5 mph - -   Overcast
9:50 PM 48.2 °F 44.6 °F 87% 30.06 in 6.2 mi West 3.5 mph - N/A   Overcast
10:50 PM 48.2 °F 44.6 °F 87% 30.06 in 6.2 mi West 3.5 mph - N/A Rain Rain Showers
11:50 PM 48.2 °F 44.6 °F 87% 30.06 in 4.3 mi West 1.2 mph - N/A Rain Rain